Total_Precipitation_Accumulation
0.45 0.26 0.30 0.27 0.23 0.24 0.25 0.29 0.32 0.33 0.31 0.27 0.27 0.32 0.38 0.35 0.32 0.34 0.37 0.43 0.53 0.65 0.77 0.80 0.84 1.04 1.17 1.08 0.95 0.83 0.77 0.83 0.97 1.09 1.16 1.23 1.32 1.37 1.55 1.63 1.59 1.44 1.33
0.48 0.27 0.30 0.29 0.27 0.26 0.24 0.27 0.31 0.32 0.31 0.27 0.25 0.31 0.42 0.38 0.35 0.33 0.38 0.45 0.54 0.66 0.72 0.73 0.82 0.91 0.91 0.84 0.77 0.74 0.74 0.82 1.04 1.27 1.41 1.43 1.51 1.52 1.61 1.81 1.96 1.85 1.50
0.62 0.42 0.32 0.31 0.28 0.28 0.26 0.27 0.28 0.29 0.33 0.32 0.26 0.25 0.28 0.28 0.29 0.30 0.33 0.42 0.55 0.64 0.66 0.65 0.71 0.71 0.69 0.67 0.67 0.70 0.75 0.89 1.16 1.54 1.85 1.99 1.83 1.81 1.75 1.77 1.84 1.68 1.72
0.56 0.54 0.39 0.36 0.32 0.28 0.27 0.30 0.32 0.31 0.31 0.30 0.26 0.24 0.24 0.25 0.27 0.31 0.35 0.42 0.57 0.68 0.69 0.63 0.64 0.66 0.66 0.65 0.64 0.67 0.74 0.90 1.24 1.64 2.25 2.36 2.31 2.39 1.97 1.68 1.60 1.56 1.78
0.49 0.51 0.49 0.41 0.37 0.33 0.31 0.34 0.36 0.37 0.35 0.35 0.35 0.33 0.33 0.32 0.33 0.37 0.45 0.50 0.59 0.66 0.71 0.69 0.68 0.69 0.64 0.62 0.64 0.68 0.79 1.01 1.35 1.71 2.23 2.78 3.15 2.84 2.24 1.84 1.67 1.58 1.73
0.55 0.55 0.53 0.46 0.45 0.45 0.43 0.43 0.42 0.41 0.40 0.42 0.43 0.42 0.42 0.47 0.51 0.53 0.60 0.66 0.71 0.73 0.76 0.74 0.74 0.70 0.60 0.60 0.64 0.72 0.87 1.09 1.26 1.58 2.23 2.97 2.94 2.73 2.40 2.16 1.86 1.74 1.69
0.58 0.70 0.56 0.55 0.56 0.57 0.58 0.55 0.53 0.49 0.48 0.50 0.51 0.48 0.50 0.59 0.65 0.65 0.72 0.76 0.80 0.85 0.86 0.81 0.72 0.64 0.58 0.61 0.67 0.74 0.87 1.06 1.22 1.83 2.44 2.84 2.68 2.48 2.41 2.34 2.14 1.95 1.79
0.61 0.64 0.62 0.62 0.65 0.65 0.70 0.76 0.74 0.66 0.62 0.61 0.61 0.57 0.51 0.52 0.59 0.73 0.79 0.83 0.87 0.88 0.84 0.77 0.71 0.65 0.62 0.64 0.68 0.79 0.91 0.94 0.98 1.60 2.27 2.45 2.15 2.22 2.38 2.26 2.17 2.03 1.89
0.73 0.74 0.83 0.88 0.89 0.94 0.99 1.02 0.97 0.88 0.83 0.76 0.70 0.63 0.58 0.56 0.61 0.72 0.88 0.95 0.97 0.93 0.87 0.79 0.76 0.73 0.72 0.71 0.69 0.76 0.84 0.96 1.01 1.37 1.96 2.41 1.88 2.05 2.38 2.30 2.15 2.07 1.96
1.22 1.21 1.25 1.34 1.30 1.22 1.16 1.15 1.10 1.03 0.97 0.89 0.77 0.70 0.69 0.72 0.80 0.92 0.90 0.97 1.03 1.06 0.97 0.93 0.86 0.79 0.82 0.80 0.78 0.85 0.95 0.95 0.93 1.26 1.81 1.96 1.82 2.22 2.56 2.41 2.21 2.13 1.93
1.87 1.82 1.69 1.68 1.57 1.57 1.46 1.26 1.32 1.23 1.18 1.11 1.01 0.91 0.94 1.04 1.22 1.29 1.10 1.17 1.25 1.27 1.21 1.19 1.10 1.04 1.01 0.94 0.97 1.01 1.00 0.90 1.05 1.38 1.96 2.04 2.24 2.54 2.81 2.74 2.50 2.27 2.09
2.38 2.27 2.00 2.08 2.01 1.84 1.71 1.70 1.68 1.53 1.53 1.53 1.54 1.33 1.39 1.77 1.90 1.62 1.65 1.63 1.75 1.69 1.50 1.44 1.37 1.25 1.11 1.07 1.19 1.25 0.99 0.95 1.12 1.41 1.76 2.07 2.39 2.74 2.93 2.82 2.60 2.39 2.30
2.39 2.23 2.34 2.52 2.36 2.36 2.49 2.44 2.26 2.18 2.17 2.05 2.12 1.94 2.01 2.04 1.96 1.96 2.06 2.05 2.07 1.98 1.94 1.93 1.74 1.49 1.46 1.48 1.44 1.31 1.19 1.20 1.22 1.40 1.72 2.04 2.34 2.76 3.00 2.86 2.65 2.53 2.48
2.66 2.44 2.52 2.54 2.54 2.68 2.77 2.87 2.91 2.77 2.74 2.61 2.55 2.36 2.46 2.54 2.56 2.49 2.59 2.59 2.60 2.59 2.60 2.45 2.25 2.17 1.92 1.79 1.66 1.61 1.48 1.43 1.57 1.76 1.95 2.01 2.16 2.55 2.90 2.95 2.79 2.66 2.59
3.25 3.02 2.89 3.00 2.87 2.83 3.06 3.18 3.02 3.16 3.10 3.20 3.17 2.84 2.88 2.90 2.92 3.13 3.05 3.15 3.01 3.14 3.07 2.84 2.52 2.41 2.28 2.03 1.82 1.78 1.77 1.73 1.82 1.90 2.03 2.12 2.15 2.39 2.80 3.04 2.98 2.88 2.93
3.68 3.52 3.28 3.19 3.21 3.10 3.26 3.50 3.45 3.28 3.38 3.41 3.56 3.36 3.27 3.30 3.39 3.46 3.46 3.48 3.24 3.19 3.22 3.06 2.73 2.58 2.43 2.27 1.96 1.78 1.79 2.00 1.98 1.92 2.08 2.18 2.14 2.19 2.53 2.99 3.26 3.40 3.48
3.84 3.62 3.59 3.42 3.64 3.77 3.98 3.94 3.95 4.00 4.01 3.94 3.90 3.97 3.85 3.84 3.90 3.81 3.91 3.88 3.63 3.48 3.45 3.40 3.26 2.92 2.71 2.64 2.44 2.19 2.05 2.06 2.20 2.32 2.32 2.37 2.42 2.37 2.53 2.82 3.15 3.40 3.55
3.77 3.78 3.92 3.72 3.80 4.05 4.11 4.10 4.26 4.55 4.69 4.51 4.31 4.34 4.27 4.37 4.45 4.49 4.29 4.02 3.85 3.71 3.69 3.81 3.57 3.24 3.12 3.13 2.93 2.55 2.24 2.29 2.39 2.42 2.44 2.49 2.67 2.57 2.60 2.60 2.78 3.04 3.32
3.69 3.68 3.89 4.10 3.97 4.20 4.36 4.44 4.66 4.89 5.08 4.94 4.73 4.60 4.63 4.66 4.60 4.72 4.65 4.45 4.24 4.10 4.01 3.70 3.67 3.54 3.50 3.40 2.95 2.72 2.40 2.30 2.37 2.32 2.38 2.48 2.71 2.79 2.78 2.56 2.67 3.00 3.21
3.75 3.82 3.92 4.27 4.29 4.63 4.78 4.66 4.88 5.03 5.08 5.06 5.03 4.96 5.11 5.18 4.98 4.97 4.80 4.68 4.60 4.50 4.33 4.08 4.02 3.90 3.64 3.46 3.01 2.78 2.55 2.31 2.27 2.29 2.26 2.33 2.41 2.44 2.54 2.57 2.62 2.56 2.81
3.98 4.12 4.11 4.25 4.53 4.72 4.90 4.97 5.34 5.36 5.20 5.32 5.56 5.52 5.67 5.74 5.45 5.34 5.19 5.05 4.82 4.61 4.47 4.30 4.08 3.89 3.58 3.46 3.32 3.04 2.61 2.26 2.22 2.20 2.11 2.19 2.22 2.18 2.29 2.40 2.61 2.55 2.42
4.11 4.26 4.46 4.62 4.69 4.84 5.33 5.77 6.14 6.48 6.46 6.37 6.51 6.52 6.33 6.20 6.04 5.80 5.75 5.48 5.10 4.82 4.52 4.27 4.03 3.72 3.40 3.39 3.45 3.55 3.07 2.64 2.12 1.80 1.84 1.87 1.88 1.90 2.01 2.14 2.27 2.34 2.27
3.91 4.14 4.39 4.72 5.10 5.63 6.27 6.72 7.01 7.34 7.47 7.21 6.93 6.74 6.50 6.32 6.11 5.68 5.46 5.36 5.07 4.57 4.28 4.11 3.89 3.67 3.42 3.29 3.26 3.54 3.31 2.90 2.42 2.07 1.81 1.68 1.71 1.83 1.89 2.02 2.08 2.07 2.01
3.49 3.86 4.29 4.73 5.37 6.27 6.96 7.36 7.74 7.91 7.91 7.70 7.39 6.93 6.49 6.10 5.69 5.30 5.03 4.76 4.50 4.15 3.93 3.67 3.58 3.54 3.46 3.24 3.15 2.98 2.78 2.64 2.65 2.42 2.09 1.88 1.81 1.82 1.78 1.74 1.79 1.87 1.92
3.29 3.67 4.12 4.59 5.34 6.08 6.72 7.31 7.77 7.94 7.88 7.60 7.11 6.54 6.00 5.53 5.05 4.57 4.26 3.99 3.76 3.50 3.28 3.07 3.06 3.13 3.17 3.08 3.03 2.94 2.82 2.72 2.58 2.45 2.33 2.24 2.13 1.96 1.83 1.76 1.75 1.75 1.74
2.92 3.30 3.76 4.20 4.79 5.44 5.91 6.51 6.90 7.08 6.97 6.54 5.94 5.31 4.92 4.66 4.31 3.91 3.56 3.31 3.02 2.80 2.63 2.55 2.49 2.50 2.62 2.67 2.72 2.70 2.69 2.79 2.73 2.70 2.53 2.39 2.32 2.16 1.99 1.87 1.80 1.76 1.68